QPF
0.00 0.00 0.02 0.01 0.00 0.00 0.00 0.01 0.01 0.01 0.00 0.00 0.00 0.00 0.00 0.00 0.00 0.00 0.00 0.01 0.01 0.02 0.02 0.03 0.02 0.02 0.01 0.01 0.01 0.01 0.01 0.01 0.01 0.01 0.01 0.01 0.01 0.01 0.02 0.02 0.02 0.02 0.02
0.00 0.00 0.01 0.01 0.01 0.00 0.00 0.00 0.01 0.00 0.00 0.00 0.01 0.01 0.01 0.00 0.00 0.00 0.01 0.01 0.01 0.02 0.04 0.04 0.03 0.02 0.01 0.01 0.01 0.01 0.00 0.00 0.00 0.00 0.00 0.01 0.01 0.01 0.02 0.02 0.01 0.02 0.02
0.00 0.00 0.01 0.01 0.01 0.01 0.00 0.01 0.01 0.00 0.00 0.01 0.01 0.01 0.01 0.01 0.01 0.01 0.01 0.01 0.01 0.02 0.03 0.04 0.02 0.02 0.01 0.01 0.01 0.01 0.01 0.00 0.00 0.00 0.00 0.00 0.01 0.02 0.02 0.02 0.02 0.02 0.02
0.00 0.00 0.01 0.01 0.01 0.01 0.01 0.01 0.01 0.01 0.01 0.01 0.01 0.01 0.01 0.01 0.01 0.02 0.01 0.01 0.02 0.02 0.02 0.02 0.02 0.01 0.01 0.01 0.01 0.01 0.00 0.00 0.00 0.00 0.00 0.00 0.01 0.02 0.02 0.02 0.02 0.01 0.01
0.00 0.00 0.01 0.01 0.01 0.01 0.00 0.01 0.01 0.01 0.02 0.01 0.01 0.01 0.01 0.01 0.01 0.01 0.01 0.02 0.02 0.01 0.01 0.02 0.02 0.01 0.01 0.01 0.01 0.01 0.01 0.00 0.00 0.00 0.00 0.00 0.01 0.03 0.02 0.03 0.02 0.01 0.01
0.00 0.00 0.01 0.01 0.01 0.01 0.01 0.01 0.01 0.01 0.02 0.02 0.01 0.02 0.02 0.02 0.01 0.01 0.01 0.01 0.01 0.01 0.01 0.01 0.01 0.01 0.01 0.01 0.01 0.01 0.01 0.01 0.00 0.00 0.00 0.00 0.01 0.03 0.03 0.02 0.02 0.01 0.01
0.00 0.00 0.01 0.01 0.02 0.01 0.01 0.01 0.01 0.02 0.02 0.02 0.01 0.02 0.03 0.02 0.01 0.01 0.01 0.01 0.01 0.01 0.01 0.01 0.01 0.01 0.01 0.01 0.01 0.01 0.01 0.01 0.00 0.00 0.00 0.00 0.01 0.02 0.03 0.03 0.02 0.02 0.02
0.00 0.00 0.01 0.01 0.01 0.02 0.02 0.02 0.02 0.03 0.02 0.02 0.02 0.02 0.03 0.03 0.02 0.01 0.01 0.01 0.01 0.01 0.01 0.01 0.01 0.01 0.01 0.01 0.01 0.01 0.01 0.00 0.01 0.00 0.00 0.01 0.02 0.03 0.03 0.03 0.03 0.02 0.02
0.00 0.00 0.01 0.01 0.01 0.01 0.02 0.02 0.03 0.03 0.03 0.02 0.02 0.02 0.02 0.02 0.02 0.01 0.01 0.01 0.01 0.01 0.01 0.01 0.01 0.01 0.01 0.01 0.01 0.01 0.00 0.00 0.00 0.00 0.00 0.01 0.02 0.02 0.02 0.03 0.03 0.02 0.01
0.01 0.01 0.01 0.01 0.01 0.01 0.01 0.02 0.02 0.02 0.03 0.03 0.02 0.02 0.01 0.02 0.01 0.01 0.01 0.01 0.01 0.01 0.01 0.01 0.01 0.01 0.01 0.01 0.01 0.01 0.00 0.00 0.00 0.00 0.00 0.01 0.02 0.03 0.02 0.02 0.03 0.03 0.01
0.01 0.01 0.01 0.01 0.01 0.01 0.01 0.02 0.02 0.02 0.02 0.02 0.01 0.01 0.01 0.01 0.00 0.00 0.00 0.01 0.01 0.00 0.01 0.01 0.01 0.01 0.00 0.00 0.00 0.00 0.00 0.00 0.00 0.00 0.00 0.02 0.02 0.03 0.02 0.02 0.02 0.03 0.02
0.01 0.01 0.01 0.01 0.02 0.01 0.01 0.02 0.03 0.03 0.02 0.01 0.01 0.01 0.01 0.00 0.00 0.00 0.00 0.00 0.00 0.00 0.00 0.01 0.01 0.01 0.00 0.00 0.00 0.01 0.00 0.00 0.00 0.00 0.01 0.02 0.02 0.03 0.03 0.02 0.02 0.02 0.03
0.01 0.01 0.01 0.01 0.01 0.01 0.01 0.01 0.02 0.02 0.02 0.02 0.01 0.01 0.01 0.01 0.01 0.00 0.01 0.00 0.00 0.00 0.00 0.00 0.00 0.00 0.00 0.00 0.00 0.01 0.00 0.00 0.00 0.00 0.01 0.02 0.02 0.03 0.03 0.02 0.01 0.02 0.02
0.01 0.01 0.01 0.01 0.01 0.02 0.02 0.01 0.01 0.01 0.01 0.02 0.02 0.02 0.02 0.02 0.02 0.01 0.01 0.00 0.00 0.00 0.00 0.00 0.00 0.00 0.00 0.00 0.00 0.01 0.00 0.00 0.00 0.01 0.02 0.02 0.02 0.02 0.04 0.02 0.02 0.02 0.02
0.01 0.01 0.01 0.01 0.01 0.02 0.02 0.01 0.01 0.01 0.01 0.01 0.01 0.01 0.02 0.03 0.02 0.02 0.01 0.00 0.00 0.00 0.00 0.00 0.00 0.00 0.00 0.00 0.00 0.01 0.01 0.01 0.01 0.01 0.01 0.01 0.01 0.02 0.03 0.03 0.02 0.02 0.02
0.01 0.01 0.02 0.02 0.02 0.02 0.02 0.01 0.01 0.01 0.01 0.01 0.01 0.01 0.02 0.03 0.03 0.03 0.02 0.01 0.00 0.00 0.00 0.00 0.00 0.00 0.00 0.00 0.00 0.00 0.01 0.01 0.01 0.01 0.02 0.01 0.01 0.01 0.02 0.03 0.03 0.03 0.03
0.01 0.02 0.02 0.03 0.02 0.02 0.02 0.02 0.02 0.01 0.01 0.01 0.01 0.01 0.01 0.02 0.03 0.03 0.02 0.01 0.00 0.00 0.00 0.00 0.00 0.00 0.00 0.00 0.00 0.00 0.01 0.02 0.02 0.02 0.02 0.01 0.01 0.00 0.01 0.02 0.03 0.05 0.05
0.01 0.03 0.03 0.04 0.03 0.03 0.03 0.02 0.01 0.01 0.01 0.01 0.01 0.01 0.01 0.02 0.03 0.03 0.03 0.01 0.01 0.00 0.00 0.00 0.00 0.00 0.00 0.00 0.00 0.00 0.01 0.01 0.03 0.03 0.02 0.01 0.00 0.00 0.00 0.01 0.02 0.03 0.04
0.01 0.02 0.03 0.04 0.04 0.03 0.03 0.03 0.02 0.01 0.01 0.02 0.01 0.01 0.01 0.01 0.03 0.03 0.03 0.02 0.01 0.01 0.00 0.00 0.00 0.01 0.01 0.00 0.00 0.01 0.01 0.01 0.02 0.03 0.02 0.01 0.01 0.00 0.00 0.00 0.01 0.01 0.01
0.01 0.01 0.02 0.02 0.04 0.04 0.03 0.04 0.04 0.03 0.02 0.02 0.02 0.02 0.02 0.02 0.02 0.03 0.04 0.03 0.01 0.01 0.01 0.00 0.00 0.00 0.01 0.01 0.01 0.01 0.01 0.02 0.02 0.02 0.02 0.02 0.01 0.01 0.01 0.01 0.01 0.01 0.01
0.02 0.02 0.02 0.02 0.02 0.03 0.03 0.03 0.04 0.03 0.03 0.02 0.02 0.02 0.02 0.02 0.03 0.05 0.04 0.04 0.02 0.01 0.01 0.01 0.01 0.00 0.01 0.01 0.01 0.01 0.01 0.02 0.03 0.03 0.02 0.02 0.02 0.01 0.01 0.01 0.02 0.02 0.02
0.02 0.01 0.02 0.02 0.03 0.03 0.03 0.02 0.02 0.03 0.03 0.02 0.02 0.03 0.03 0.02 0.03 0.04 0.03 0.03 0.02 0.01 0.01 0.01 0.01 0.01 0.01 0.01 0.01 0.01 0.02 0.02 0.03 0.04 0.03 0.02 0.02 0.01 0.01 0.02 0.02 0.02 0.02
0.03 0.02 0.01 0.02 0.02 0.02 0.03 0.03 0.04 0.04 0.04 0.04 0.03 0.03 0.03 0.03 0.03 0.03 0.02 0.02 0.02 0.01 0.01 0.01 0.01 0.01 0.01 0.01 0.01 0.01 0.01 0.01 0.02 0.04 0.04 0.03 0.03 0.03 0.02 0.02 0.01 0.01 0.01
0.03 0.03 0.02 0.02 0.02 0.03 0.03 0.03 0.04 0.04 0.04 0.04 0.04 0.03 0.04 0.04 0.04 0.03 0.03 0.03 0.02 0.02 0.01 0.01 0.01 0.02 0.02 0.01 0.01 0.01 0.01 0.01 0.01 0.03 0.05 0.04 0.05 0.04 0.04 0.04 0.03 0.02 0.01
0.01 0.02 0.03 0.03 0.02 0.02 0.03 0.03 0.03 0.04 0.04 0.04 0.05 0.06 0.05 0.04 0.05 0.06 0.05 0.04 0.03 0.03 0.02 0.01 0.01 0.01 0.02 0.02 0.02 0.02 0.02 0.01 0.01 0.02 0.04 0.05 0.05 0.05 0.06 0.06 0.06 0.05 0.04
0.01 0.01 0.03 0.03 0.02 0.02 0.03 0.04 0.04 0.03 0.04 0.04 0.04 0.05 0.08 0.08 0.05 0.06 0.09 0.09 0.06 0.05 0.03 0.03 0.02 0.02 0.03 0.04 0.04 0.03 0.02 0.02 0.01 0.01 0.02 0.03 0.04 0.04 0.04 0.05 0.06 0.06 0.06
MSLP
1014.13 1013.89 1013.81 1013.91 1014.15 1014.48 1014.85 1015.19 1015.47 1015.67 1015.80 1015.89 1015.98 1016.10 1016.28 1016.50 1016.75 1017.01 1017.24 1017.42 1017.55 1017.64 1017.72 1017.80 1017.92 1018.08 1018.28 1018.50 1018.71 1018.91 1019.07 1019.20 1019.28 1019.35 1019.40 1019.45 1019.51 1019.57 1019.62 1019.68 1019.72 1019.77 1019.81
1014.12 1013.90 1013.83 1013.94 1014.19 1014.54 1014.93 1015.31 1015.62 1015.87 1016.04 1016.19 1016.33 1016.50 1016.72 1016.99 1017.27 1017.54 1017.77 1017.94 1018.05 1018.12 1018.17 1018.23 1018.33 1018.47 1018.65 1018.85 1019.06 1019.24 1019.39 1019.51 1019.59 1019.65 1019.70 1019.76 1019.82 1019.89 1019.95 1020.01 1020.06 1020.11 1020.17
1014.08 1013.89 1013.85 1013.97 1014.24 1014.61 1015.02 1015.42 1015.77 1016.05 1016.27 1016.46 1016.65 1016.87 1017.13 1017.41 1017.71 1017.99 1018.21 1018.37 1018.46 1018.51 1018.54 1018.59 1018.66 1018.79 1018.96 1019.15 1019.35 1019.53 1019.68 1019.81 1019.89 1019.97 1020.03 1020.10 1020.17 1020.24 1020.31 1020.38 1020.44 1020.50 1020.57
1014.06 1013.91 1013.91 1014.06 1014.34 1014.72 1015.15 1015.56 1015.93 1016.23 1016.47 1016.69 1016.90 1017.14 1017.42 1017.71 1018.01 1018.29 1018.51 1018.66 1018.75 1018.79 1018.82 1018.86 1018.93 1019.06 1019.22 1019.42 1019.62 1019.81 1019.98 1020.11 1020.22 1020.31 1020.39 1020.46 1020.54 1020.61 1020.69 1020.76 1020.84 1020.91 1021.00
1014.10 1014.01 1014.05 1014.23 1014.54 1014.92 1015.34 1015.75 1016.10 1016.40 1016.65 1016.86 1017.08 1017.32 1017.58 1017.87 1018.16 1018.43 1018.64 1018.80 1018.90 1018.96 1019.00 1019.06 1019.15 1019.29 1019.46 1019.67 1019.89 1020.09 1020.28 1020.43 1020.56 1020.67 1020.76 1020.84 1020.92 1020.99 1021.07 1021.15 1021.23 1021.32 1021.42
1014.26 1014.24 1014.34 1014.55 1014.86 1015.24 1015.63 1016.00 1016.33 1016.59 1016.81 1017.00 1017.20 1017.41 1017.66 1017.92 1018.20 1018.45 1018.67 1018.83 1018.95 1019.05 1019.13 1019.22 1019.34 1019.51 1019.70 1019.93 1020.16 1020.38 1020.59 1020.76 1020.91 1021.02 1021.12 1021.20 1021.27 1021.34 1021.41 1021.49 1021.58 1021.68 1021.79
1014.61 1014.66 1014.80 1015.03 1015.34 1015.68 1016.03 1016.35 1016.62 1016.83 1017.00 1017.15 1017.31 1017.50 1017.71 1017.95 1018.19 1018.43 1018.65 1018.83 1018.97 1019.10 1019.23 1019.37 1019.53 1019.72 1019.95 1020.19 1020.43 1020.67 1020.88 1021.07 1021.22 1021.34 1021.44 1021.51 1021.57 1021.62 1021.68 1021.75 1021.84 1021.96 1022.09
1015.19 1015.28 1015.45 1015.69 1015.97 1016.26 1016.54 1016.79 1016.98 1017.13 1017.26 1017.37 1017.50 1017.65 1017.83 1018.04 1018.26 1018.47 1018.67 1018.85 1019.02 1019.18 1019.34 1019.52 1019.72 1019.94 1020.18 1020.43 1020.68 1020.92 1021.14 1021.33 1021.48 1021.60 1021.69 1021.74 1021.79 1021.82 1021.86 1021.93 1022.02 1022.14 1022.29
1016.00 1016.12 1016.30 1016.51 1016.74 1016.96 1017.15 1017.30 1017.42 1017.51 1017.60 1017.69 1017.80 1017.94 1018.10 1018.27 1018.46 1018.64 1018.81 1018.98 1019.14 1019.31 1019.49 1019.69 1019.91 1020.14 1020.39 1020.64 1020.88 1021.11 1021.32 1021.50 1021.66 1021.77 1021.85 1021.89 1021.92 1021.93 1021.96 1022.01 1022.10 1022.23 1022.39
1017.01 1017.13 1017.28 1017.44 1017.59 1017.71 1017.80 1017.86 1017.90 1017.95 1018.01 1018.10 1018.22 1018.36 1018.52 1018.67 1018.82 1018.96 1019.09 1019.22 1019.35 1019.50 1019.67 1019.87 1020.08 1020.31 1020.54 1020.78 1021.00 1021.22 1021.42 1021.59 1021.74 1021.85 1021.92 1021.96 1021.98 1021.98 1022.00 1022.04 1022.12 1022.24 1022.41
1018.15 1018.25 1018.35 1018.43 1018.47 1018.47 1018.44 1018.40 1018.38 1018.39 1018.46 1018.57 1018.72 1018.88 1019.05 1019.19 1019.31 1019.40 1019.48 1019.55 1019.63 1019.74 1019.87 1020.04 1020.23 1020.43 1020.64 1020.85 1021.05 1021.24 1021.42 1021.59 1021.73 1021.85 1021.93 1021.97 1021.99 1021.99 1021.99 1022.03 1022.10 1022.22 1022.39
1019.33 1019.39 1019.42 1019.40 1019.32 1019.18 1019.03 1018.89 1018.80 1018.79 1018.86 1019.01 1019.21 1019.42 1019.61 1019.76 1019.86 1019.90 1019.92 1019.92 1019.94 1019.99 1020.08 1020.20 1020.35 1020.51 1020.69 1020.86 1021.03 1021.20 1021.36 1021.52 1021.66 1021.79 1021.88 1021.93 1021.96 1021.97 1021.97 1022.00 1022.07 1022.18 1022.34
1020.49 1020.49 1020.43 1020.29 1020.07 1019.79 1019.51 1019.26 1019.11 1019.07 1019.17 1019.36 1019.62 1019.88 1020.11 1020.27 1020.36 1020.37 1020.33 1020.28 1020.24 1020.24 1020.28 1020.35 1020.46 1020.58 1020.71 1020.84 1020.98 1021.12 1021.26 1021.41 1021.55 1021.68 1021.79 1021.86 1021.91 1021.92 1021.94 1021.96 1022.02 1022.12 1022.27
1021.54 1021.47 1021.33 1021.06 1020.70 1020.28 1019.86 1019.51 1019.29 1019.23 1019.33 1019.56 1019.87 1020.18 1020.45 1020.64 1020.72 1020.72 1020.66 1020.58 1020.51 1020.47 1020.47 1020.51 1020.58 1020.66 1020.75 1020.84 1020.93 1021.03 1021.15 1021.28 1021.41 1021.55 1021.66 1021.75 1021.81 1021.84 1021.86 1021.89 1021.94 1022.03 1022.17
1022.45 1022.32 1022.08 1021.70 1021.21 1020.66 1020.11 1019.66 1019.37 1019.27 1019.36 1019.61 1019.94 1020.29 1020.59 1020.80 1020.91 1020.92 1020.86 1020.78 1020.71 1020.66 1020.66 1020.69 1020.73 1020.79 1020.84 1020.88 1020.93 1020.98 1021.06 1021.15 1021.26 1021.38 1021.50 1021.59 1021.66 1021.70 1021.73 1021.76 1021.80 1021.88 1022.00
1023.21 1023.02 1022.70 1022.22 1021.62 1020.95 1020.30 1019.76 1019.39 1019.24 1019.30 1019.53 1019.86 1020.22 1020.54 1020.77 1020.90 1020.95 1020.93 1020.89 1020.85 1020.84 1020.86 1020.89 1020.94 1020.97 1020.99 1020.99 1020.98 1020.98 1021.00 1021.04 1021.11 1021.20 1021.29 1021.37 1021.43 1021.48 1021.50 1021.53 1021.57 1021.65 1021.76
1023.84 1023.59 1023.20 1022.65 1021.97 1021.21 1020.48 1019.86 1019.43 1019.21 1019.22 1019.41 1019.70 1020.04 1020.35 1020.59 1020.75 1020.84 1020.89 1020.91 1020.94 1020.99 1021.06 1021.13 1021.18 1021.21 1021.20 1021.15 1021.09 1021.03 1020.98 1020.96 1020.97 1021.01 1021.05 1021.10 1021.14 1021.17 1021.19 1021.21 1021.25 1021.32 1021.43
1024.38 1024.09 1023.65 1023.04 1022.31 1021.51 1020.73 1020.06 1019.57 1019.29 1019.22 1019.34 1019.57 1019.84 1020.12 1020.35 1020.53 1020.67 1020.78 1020.88 1020.99 1021.12 1021.25 1021.36 1021.44 1021.46 1021.42 1021.34 1021.23 1021.10 1020.99 1020.90 1020.84 1020.81 1020.80 1020.80 1020.80 1020.80 1020.80 1020.82 1020.86 1020.93 1021.04
1024.89 1024.54 1024.07 1023.44 1022.69 1021.87 1021.08 1020.39 1019.86 1019.52 1019.38 1019.40 1019.54 1019.73 1019.94 1020.14 1020.32 1020.48 1020.65 1020.83 1021.02 1021.22 1021.41 1021.56 1021.66 1021.68 1021.63 1021.52 1021.36 1021.19 1021.02 1020.87 1020.75 1020.65 1020.58 1020.52 1020.46 1020.42 1020.40 1020.40 1020.44 1020.52 1020.63
1025.39 1025.01 1024.50 1023.86 1023.12 1022.33 1021.56 1020.87 1020.32 1019.94 1019.72 1019.65 1019.68 1019.77 1019.89 1020.03 1020.18 1020.35 1020.54 1020.77 1021.02 1021.28 1021.51 1021.69 1021.80 1021.83 1021.77 1021.64 1021.46 1021.27 1021.06 1020.88 1020.70 1020.55 1020.42 1020.29 1020.18 1020.09 1020.02 1020.00 1020.03 1020.11 1020.23
1025.93 1025.51 1024.98 1024.35 1023.63 1022.88 1022.15 1021.50 1020.96 1020.55 1020.27 1020.11 1020.02 1020.00 1020.02 1020.07 1020.16 1020.30 1020.50 1020.74 1021.01 1021.29 1021.53 1021.73 1021.84 1021.87 1021.80 1021.68 1021.50 1021.31 1021.10 1020.90 1020.71 1020.52 1020.33 1020.15 1019.98 1019.83 1019.72 1019.67 1019.67 1019.74 1019.86
1026.54 1026.07 1025.52 1024.89 1024.21 1023.52 1022.85 1022.25 1021.74 1021.32 1021.00 1020.76 1020.57 1020.43 1020.33 1020.28 1020.30 1020.38 1020.53 1020.74 1020.99 1021.25 1021.48 1021.65 1021.76 1021.77 1021.72 1021.60 1021.45 1021.29 1021.11 1020.93 1020.75 1020.54 1020.32 1020.09 1019.86 1019.65 1019.49 1019.39 1019.36 1019.41 1019.52
1027.20 1026.69 1026.12 1025.50 1024.85 1024.21 1023.61 1023.07 1022.61 1022.20 1021.86 1021.55 1021.28 1021.03 1020.82 1020.67 1020.58 1020.58 1020.66 1020.80 1020.99 1021.19 1021.37 1021.50 1021.56 1021.56 1021.51 1021.42 1021.31 1021.19 1021.07 1020.94 1020.78 1020.58 1020.34 1020.07 1019.79 1019.52 1019.29 1019.14 1019.07 1019.08 1019.17
1027.91 1027.37 1026.77 1026.15 1025.53 1024.94 1024.41 1023.93 1023.52 1023.14 1022.79 1022.44 1022.10 1021.77 1021.46 1021.20 1021.01 1020.90 1020.88 1020.93 1021.03 1021.14 1021.23 1021.29 1021.30 1021.27 1021.20 1021.13 1021.07 1021.00 1020.94 1020.85 1020.73 1020.55 1020.31 1020.01 1019.68 1019.35 1019.06 1018.85 1018.73 1018.70 1018.75
1028.64 1028.07 1027.46 1026.83 1026.23 1025.68 1025.20 1024.79 1024.42 1024.08 1023.73 1023.37 1022.98 1022.58 1022.20 1021.84 1021.55 1021.34 1021.21 1021.15 1021.13 1021.13 1021.11 1021.08 1021.01 1020.93 1020.84 1020.78 1020.73 1020.70 1020.68 1020.64 1020.55 1020.38 1020.13 1019.81 1019.44 1019.06 1018.72 1018.45 1018.27 1018.20 1018.22
1029.34 1028.77 1028.14 1027.51 1026.92 1026.41 1025.97 1025.60 1025.28 1024.97 1024.64 1024.28 1023.87 1023.42 1022.97 1022.55 1022.17 1021.86 1021.62 1021.45 1021.31 1021.18 1021.05 1020.91 1020.75 1020.60 1020.46 1020.36 1020.31 1020.29 1020.28 1020.25 1020.17 1020.01 1019.75 1019.41 1019.01 1018.59 1018.20 1017.88 1017.67 1017.56 1017.55
Thickness
5732 5733 5732 5731 5730 5729 5729 5728 5728 5727 5727 5726 5725 5725 5724 5724 5724 5723 5723 5722 5722 5722 5721 5721 5721 5720 5719 5719 5718 5717 5717 5716 5715 5715 5714 5714 5713 5712 5711 5711 5711 5710 5709
5735 5732 5730 5729 5728 5727 5726 5725 5725 5724 5724 5723 5723 5722 5722 5721 5721 5721 5720 5720 5719 5719 5719 5718 5718 5717 5716 5716 5715 5714 5713 5713 5712 5711 5711 5711 5710 5709 5709 5708 5708 5707 5706
5732 5729 5727 5726 5725 5724 5723 5723 5722 5722 5721 5721 5720 5720 5719 5719 5718 5718 5717 5717 5717 5716 5716 5715 5714 5713 5713 5712 5712 5711 5710 5709 5709 5708 5708 5708 5707 5706 5706 5705 5705 5704 5703
5729 5726 5724 5723 5721 5721 5720 5719 5719 5719 5718 5718 5717 5717 5716 5716 5715 5715 5714 5714 5713 5713 5712 5712 5711 5710 5709 5709 5708 5707 5707 5706 5706 5705 5705 5705 5704 5703 5703 5702 5702 5701 5700
5724 5722 5721 5719 5718 5717 5717 5716 5716 5715 5715 5714 5714 5713 5713 5712 5712 5712 5711 5711 5710 5709 5709 5708 5707 5707 5706 5705 5705 5704 5703 5703 5702 5702 5702 5701 5701 5700 5700 5699 5698 5698 5697
5718 5717 5716 5715 5714 5713 5713 5712 5712 5712 5711 5711 5710 5710 5709 5709 5709 5708 5707 5707 5706 5706 5705 5705 5704 5703 5703 5702 5701 5701 5700 5699 5699 5698 5698 5698 5698 5697 5697 5696 5695 5694 5693
5712 5712 5712 5711 5710 5709 5708 5708 5708 5708 5707 5707 5706 5706 5706 5705 5705 5704 5703 5703 5702 5702 5702 5701 5700 5700 5699 5698 5698 5697 5696 5696 5696 5695 5694 5694 5694 5694 5693 5692 5691 5691 5690
5707 5706 5706 5705 5705 5704 5704 5703 5703 5703 5703 5703 5702 5702 5702 5701 5700 5700 5699 5699 5698 5698 5698 5697 5697 5696 5695 5695 5694 5693 5693 5692 5692 5691 5691 5690 5690 5690 5689 5688 5688 5687 5686
5700 5700 5700 5700 5699 5699 5699 5698 5698 5698 5698 5698 5698 5697 5697 5697 5696 5696 5695 5695 5694 5694 5694 5693 5693 5692 5691 5691 5690 5689 5689 5688 5688 5687 5687 5686 5686 5686 5685 5684 5683 5683 5682
5692 5693 5694 5694 5694 5693 5693 5693 5693 5692 5693 5692 5692 5692 5692 5692 5691 5691 5691 5690 5690 5690 5690 5690 5689 5688 5687 5686 5686 5685 5685 5684 5684 5684 5683 5683 5682 5682 5681 5680 5679 5679 5678
5684 5686 5687 5688 5688 5688 5687 5687 5687 5687 5687 5687 5687 5687 5687 5687 5686 5686 5686 5686 5686 5685 5685 5685 5685 5684 5683 5682 5681 5681 5681 5680 5680 5679 5679 5679 5678 5678 5677 5676 5675 5674 5673
5678 5679 5680 5681 5682 5682 5682 5681 5681 5681 5681 5681 5681 5682 5682 5681 5681 5681 5681 5681 5681 5680 5680 5680 5679 5679 5678 5677 5677 5677 5676 5676 5675 5675 5675 5675 5675 5674 5673 5672 5671 5670 5669
5673 5673 5674 5675 5676 5676 5676 5675 5675 5675 5675 5675 5676 5676 5676 5676 5676 5675 5675 5675 5675 5675 5675 5674 5674 5674 5673 5673 5672 5672 5671 5671 5671 5670 5670 5670 5670 5670 5669 5668 5667 5666 5665
5666 5667 5668 5669 5669 5670 5670 5670 5669 5669 5669 5669 5670 5671 5671 5670 5670 5670 5670 5670 5670 5670 5669 5669 5669 5668 5668 5668 5667 5667 5666 5666 5666 5666 5665 5665 5665 5665 5664 5663 5663 5662 5661
5659 5660 5661 5663 5663 5663 5663 5663 5663 5663 5663 5663 5664 5665 5665 5665 5664 5664 5664 5664 5664 5664 5664 5663 5663 5663 5662 5662 5662 5661 5661 5661 5660 5660 5660 5660 5660 5659 5659 5658 5658 5657 5656
5652 5653 5654 5655 5656 5657 5657 5657 5657 5657 5657 5657 5657 5658 5659 5659 5659 5658 5658 5658 5658 5658 5658 5658 5658 5657 5656 5656 5655 5655 5655 5655 5654 5654 5654 5654 5654 5654 5654 5653 5652 5652 5651
5645 5646 5647 5648 5649 5649 5650 5650 5650 5651 5651 5651 5651 5652 5653 5653 5653 5653 5652 5652 5652 5652 5652 5652 5652 5651 5650 5650 5649 5649 5649 5649 5648 5648 5648 5648 5648 5648 5648 5647 5647 5646 5645
5636 5638 5640 5641 5642 5643 5643 5644 5644 5644 5645 5645 5645 5646 5646 5647 5647 5647 5647 5646 5646 5646 5646 5646 5645 5644 5643 5643 5642 5642 5642 5642 5642 5642 5642 5642 5641 5641 5641 5641 5640 5640 5639
5628 5630 5631 5633 5635 5636 5637 5637 5637 5638 5638 5639 5640 5640 5640 5640 5641 5641 5641 5640 5640 5640 5640 5640 5639 5638 5637 5635 5634 5634 5634 5635 5635 5635 5635 5635 5635 5635 5634 5634 5634 5633 5633
5618 5621 5623 5625 5627 5628 5628 5629 5629 5630 5631 5632 5633 5634 5634 5634 5634 5635 5635 5634 5634 5634 5633 5633 5632 5631 5630 5629 5628 5626 5626 5627 5628 5628 5628 5628 5628 5628 5628 5627 5627 5627 5626
5608 5611 5615 5617 5619 5621 5621 5623 5623 5623 5624 5625 5626 5627 5627 5628 5628 5629 5629 5628 5628 5628 5627 5626 5625 5623 5622 5622 5620 5618 5617 5618 5619 5620 5620 5621 5621 5621 5621 5620 5620 5620 5620
5598 5602 5606 5610 5612 5614 5617 5618 5618 5618 5618 5619 5620 5620 5621 5621 5622 5622 5622 5622 5622 5621 5620 5619 5619 5616 5615 5615 5614 5611 5609 5609 5610 5612 5612 5613 5613 5613 5613 5613 5613 5613 5613
5587 5593 5598 5602 5605 5607 5609 5609 5609 5609 5609 5610 5611 5613 5614 5615 5616 5616 5616 5616 5616 5615 5614 5613 5613 5612 5609 5607 5608 5607 5603 5603 5601 5602 5603 5604 5605 5605 5605 5605 5605 5605 5605
5577 5583 5589 5593 5596 5598 5600 5602 5603 5604 5603 5605 5606 5607 5607 5608 5609 5609 5610 5610 5609 5609 5608 5607 5607 5606 5605 5602 5600 5599 5599 5599 5596 5594 5594 5596 5597 5597 5597 5597 5597 5597 5597
5566 5572 5577 5582 5586 5589 5592 5595 5597 5597 5597 5597 5598 5599 5599 5600 5601 5602 5603 5603 5603 5602 5602 5600 5599 5599 5599 5597 5595 5593 5591 5590 5590 5589 5587 5587 5588 5588 5589 5589 5589 5589 5589
5555 5561 5566 5571 5576 5579 5583 5586 5588 5589 5589 5588 5589 5590 5591 5592 5593 5594 5595 5595 5596 5595 5595 5594 5594 5592 5592 5591 5590 5589 5588 5586 5585 5583 5580 5579 5579 5580 5581 5581 5581 5581 5581